Blue Oak Ranch Reserve, California Weather observations

Data are for 10 minute period ending at time listed.
 Day   Time   Solar   Ave.   Ave.  Ave.  Vector  Max.   Baro.   Total    
  of    of     Rad.   Air    Rel.  Wind   Wind   Wind  Press.  Precip.   
Year   Day            Temp.  Hum.  Speed  Dir.   Gust                    
2015   (PST)  Kw/m2    F      %     mph   deg.    mph    mb.     in.     
-------------------------------------------------------------------------
 242   14:10   0.75   75.5    40    9.0   278    14.0   949.6    0.00 
 242   14:20   0.73   74.7    40    8.8   296    14.6   949.5    0.00 
 242   14:30   0.72   75.0    40    9.4   280    14.9   949.5    0.00 
 242   14:40   0.69   74.8    40    8.8   289    13.8   949.4    0.00 
 242   14:50   0.67   75.4    40    8.9   281    16.0   949.3    0.00 
 242   15:00   0.64   75.4    38    8.9   269    17.5   949.2    0.00 
 242   15:10   0.61   75.7    38    8.3   282    15.2   949.1    0.00 
 242   15:20   0.59   75.7    40    9.9   285    15.3   948.9    0.00 
 242   15:30   0.56   75.6    41    9.5   284    15.2   948.9    0.00 
 242   15:40   0.53   74.7    43    9.1   285    13.5   948.9    0.00 
 242   15:50   0.50   74.5    44    9.5   289    13.7   948.9    0.00 
 242   16:00   0.47   73.6    46    9.6   290    14.3   948.8    0.00 
 242   16:10   0.43   73.8    47    8.4   289    12.1   948.7    0.00 
 242   16:20   0.39   73.8    48    7.7   284    12.4   948.7    0.00 
 242   16:30   0.35   72.8    49    8.5   281    11.7   948.7    0.00 
 242   16:40   0.32   72.1    51    9.4   288    12.7   948.7    0.00 
 242   16:50   0.29   71.0    53    9.3   281    13.2   948.8    0.00 
 242   17:00   0.27   70.5    53    8.6   279    12.6   948.8    0.00 
 242   17:10   0.23   70.2    53    8.0   290    12.6   948.8    0.00 
 242   17:20   0.20   69.7    57    8.8   281    14.0   948.7    0.00 
 242   17:30   0.17   68.9    57    8.5   289    13.4   948.6    0.00 
 242   17:40   0.14   68.6    57    5.3   288     9.4   948.5    0.00 
 242   17:50   0.11   68.4    56    5.8   295     9.3   948.3    0.00 
 242   18:00   0.08   67.8    54    5.7   288     8.8   948.3    0.00 
 242   18:10   0.07   67.5    55    4.4   296     8.4   948.2    0.00 
 242   18:20   0.04   66.3    58    5.9   297     8.0   948.2    0.00 
 242   18:30   0.02   64.7    65    5.0   312     7.8   948.0    0.00 
 242   18:40   0.01   63.6    71    4.2   321     6.6   947.8    0.00 
 242   18:50   0.01   62.7    72    3.1   346     4.7   947.7    0.00 
 242   19:00   0.00   62.1    76    3.7   332     5.9   947.7    0.00 
 242   19:10   0.00   61.0    76    2.7     9     3.7   947.7    0.00 
 242   19:20   0.00   60.2    77    2.0   303     2.9   947.7    0.00 
 242   19:30   0.00   59.1    78    0.7   356     2.3   947.7    0.00 
 242   19:40   0.00   58.1    80    0.6    72     1.5   947.8    0.00 
 242   19:50   0.00   57.7    80    1.6   295     3.7   947.9    0.00 
 242   20:00   0.00   56.9    81    1.0    52     2.4   947.9    0.00 
 242   20:10   0.00   56.1    82    0.1    39     0.8   948.0    0.00 
 242   20:20   0.00   55.6    81    0.0   251     0.6   948.1    0.00 
 242   20:30   0.00   55.2    82    0.1    40     1.1   948.1    0.00 
 242   20:40   0.00   54.9    82    0.9   297     1.8   948.2    0.00 
 242   20:50   0.00   54.4    84    1.8   293     3.1   948.2    0.00 
 242   21:00   0.00   53.7    85    1.2    67     2.2   948.2    0.00 
 242   21:10   0.00   53.5    84    0.5   320     1.7   948.2    0.00 
 242   21:20   0.00   53.1    85    0.0     0     0.0   948.1    0.00 
 242   21:30   0.00   52.9    85    0.3   298     1.2   947.9    0.00 
 242   21:40   0.00   52.8    86    1.8   294     3.2   947.9    0.00 
 242   21:50   0.00   52.6    87    0.4    32     1.8   947.8    0.00 
 242   22:00   0.00   52.7    88    0.0     0     0.0   947.8    0.00 
 242   22:10   0.00   52.3    86    0.0     0     0.0   947.7    0.00 
 242   22:20   0.00   52.2    85    0.1   250     1.2   947.7    0.00 
 242   22:30   0.00   52.2    84    2.2   312     3.1   947.7    0.00 
 242   22:40   0.00   51.9    82    1.2    62     2.3   947.6    0.00 
 242   22:50   0.00   51.5    81    1.2    39     2.3   947.6    0.00 
 242   23:00   0.00   51.2    83    0.3   332     1.1   947.6    0.00 
 242   23:10   0.00   50.8    84    0.1    31     1.1   947.6    0.00 
 242   23:20   0.00   50.6    84    0.4   283     1.2   947.6    0.00 
 242   23:30   0.00   51.0    83    0.9   334     2.3   947.6    0.00 
 242   23:40   0.00   50.6    83    0.2   289     1.2   947.6    0.00 
 242   23:50   0.00   50.6    84    0.7   305     1.5   947.6    0.00 
 243    0:00   0.00   50.5    85    0.0   304     0.7   947.4    0.00 
 243    0:10   0.00   50.4    85    0.0   270     0.7   947.4    0.00 
 243    0:20   0.00   50.2    86    0.0     0     0.0   947.4    0.00 
 243    0:30   0.00   50.2    85    0.0    84     0.6   947.4    0.00 
 243    0:40   0.00   50.1    83    0.1    68     1.1   947.2    0.00 
 243    0:50   0.00   50.4    81    0.0     0     0.0   947.1    0.00 
 243    1:00   0.00   50.1    83    0.1   306     0.9   947.1    0.00 
 243    1:10   0.00   49.9    83    0.0    47     0.7   947.0    0.00 
 243    1:20   0.00   50.0    80    2.4    62     3.5   947.1    0.00 
 243    1:30   0.00   50.0    78    0.9    28     3.0   947.1    0.00 
 243    1:40   0.00   49.8    81    0.6   297     2.0   947.1    0.00 
 243    1:50   0.00   49.7    83    0.3   304     1.2   947.0    0.00 
 243    2:00   0.00   49.7    84    0.1    87     0.9   946.9    0.00 
 243    2:10   0.00   49.7    84    0.5   291     2.2   946.8    0.00 
 243    2:20   0.00   49.6    84    0.2   303     1.3   946.8    0.00 
 243    2:30   0.00   49.8    86    0.0     0     0.0   946.8    0.00 
 243    2:40   0.00   49.7    86    0.3   109     1.2   946.7    0.00 
 243    2:50   0.00   49.7    85    0.3    68     1.2   946.7    0.00 
 243    3:00   0.00   49.4    84    0.2    34     0.9   946.6    0.00 
 243    3:10   0.00   49.6    84    0.1   329     0.9   946.6    0.00 
 243    3:20   0.00   49.8    83    0.0     0     0.0   946.6    0.00 
 243    3:30   0.00   49.6    83    0.0     0     0.0   946.6    0.00 
 243    3:40   0.00   49.4    82    0.1   322     0.7   946.7    0.00 
 243    3:50   0.00   49.2    82    0.6   296     1.2   946.6    0.00 
 243    4:00   0.00   49.2    84    0.5   279     1.2   946.5    0.00 
 243    4:10   0.00   49.6    82    0.2   337     1.0   946.4    0.00 
 243    4:20   0.00   50.0    80    0.6    80     2.4   946.5    0.00 
 243    4:30   0.00   50.3    78    0.9    66     2.7   946.6    0.00 
 243    4:40   0.00   49.9    79    0.4    40     1.3   946.6    0.00 
 243    4:50   0.00   49.7    80    0.0     0     0.0   946.6    0.00 
 243    5:00   0.00   49.7    81    0.2   306     1.0   946.6    0.00 
 243    5:10   0.00   50.1    79    0.3   292     1.3   946.6    0.00 
 243    5:20   0.00   50.3    78    0.4    55     1.3   946.6    0.00 
 243    5:30   0.00   50.3    78    0.0     0     0.0   946.7    0.00 
 243    5:40   0.01   50.2    78    0.0     0     0.0   946.7    0.00 
 243    5:50   0.01   49.9    79    0.7   292     2.2   946.8    0.00 
 243    6:00   0.01   50.1    80    0.1    20     0.9   946.8    0.00 
 243    6:10   0.03   50.8    78    0.0    40     0.4   946.9    0.00 
 243    6:20   0.03   51.4    78    0.0   141     0.5   946.9    0.00 
 243    6:30   0.03   51.9    77    0.4    78     1.5   947.0    0.00 
 243    6:40   0.07   52.6    75    0.6    56     1.7   947.1    0.00 
 243    6:50   0.15   54.2    74    0.3    71     2.0   947.2    0.00 
 243    7:00   0.19   58.4    66    0.4    69     1.9   947.2    0.00 
 243    7:10   0.22   62.0    61    0.0   284     0.7   947.1    0.00 
 243    7:20   0.26   64.1    56    0.2   301     0.9   947.0    0.00 
 243    7:30   0.29   67.7    48    1.4   138     3.1   946.9    0.00 
 243    7:40   0.32   67.0    47    2.0   138     3.1   946.9    0.00 
 243    7:50   0.35   68.0    46    1.0   121     2.3   946.9    0.00 
 243    8:00   0.39   69.6    44    1.8   137     3.1   947.1    0.00 
 243    8:10   0.42   70.4    44    2.2   235     3.8   947.3    0.00 
 243    8:20   0.45   71.2    44    2.5   212     4.2   947.4    0.00 
 243    8:30   0.48   71.4    44    2.7   228     5.0   947.5    0.00 
 243    8:40   0.51   72.3    43    3.8   219     5.6   947.5    0.00 
 243    8:50   0.54   72.9    43    4.1   225     6.8   947.6    0.00 
 243    9:00   0.57   72.4    45    5.1   225     7.9   947.7    0.00 
 243    9:10   0.59   71.8    46    5.0   221     7.4   947.7    0.00 
 243    9:20   0.62   72.9    45    4.5   229     7.0   947.8    0.00 
 243    9:30   0.65   73.4    45    5.0   233     8.3   947.8    0.00 
 243    9:40   0.67   73.3    45    5.0   219     7.6   947.8    0.00 
 243    9:50   0.69   73.7    45    6.0   231     9.4   947.8    0.00 
 243   10:00   0.71   73.4    45    6.5   233     9.9   947.8    0.00 
 243   10:10   0.73   74.3    44    5.9   236     9.5   947.9    0.00 
 243   10:20   0.75   75.0    43    5.4   232     8.3   947.8    0.00 
 243   10:30   0.77   76.2    41    4.6   232     8.8   947.7    0.00 
 243   10:40   0.78   76.9    40    5.7   243     8.8   947.6    0.00 
 243   10:50   0.80   77.8    39    4.7   247     8.1   947.6    0.00 
 243   11:00   0.81   77.6    39    6.0   240    11.0   947.5    0.00 
 243   11:10   0.82   78.3    38    5.0   250     9.7   947.5    0.00 
 243   11:20   0.83   79.4    37    5.7   257     9.9   947.5    0.00 
 243   11:30   0.84   79.0    37    5.3   240     8.6   947.3    0.00 
 243   11:40   0.85   79.6    36    6.1   267     9.7   947.2    0.00 
 243   11:50   0.85   79.3    36    6.1   250    11.4   947.2    0.00 
 243   12:00   0.86   79.9    35    6.0   263    10.8   947.1    0.00 
 243   12:10   0.86   79.7    35    6.5   263    11.2   947.0    0.00 
 243   12:20   0.86   80.6    33    6.0   262    10.7   946.9    0.00 
 243   12:30   0.86   80.7    31    5.7   259    11.5   946.9    0.00 
 243   12:40   0.85   80.8    30    6.9   263    12.4   946.9    0.00 
 243   12:50   0.84   81.0    28    6.3   259    12.1   946.8    0.00 
 243   13:00   0.82   81.3    28    7.5   247    15.3   946.6    0.00 
 243   13:10   0.83   81.4    29    5.4   234     9.9   946.5    0.00 
 243   13:20   0.82   82.2    28    6.6   256    10.4   946.4    0.00 
 243   13:30   0.81   81.9    28    5.6   245    11.5   946.3    0.00 
 243   13:40   0.79   82.5    27    5.4   226    12.0   946.1    0.00 
 243   13:50   0.78   83.3    26    5.3   248    10.1   946.0    0.00 
 243   14:00   0.76   83.9    25    6.1   250    12.6   945.9    0.00 

Return to Blue Oak Ranch Reserve graphs page.


Western Regional Climate Center,wrcc@dri.edu